Notices

What's New in latest Release from April 7th, 2021:

- Updated Glossary, including Speed of Maximum Gust, and Total Hourly Precipitation

- Updated national and regional climate services offices contacts and prices information

- Addition of station inventory lists for 1981-2010, 1971-2000, and 1961-1990 Normals.

If you haven't already, please take our survey and provide feedback about our website: https://eccc.sondage-survey.ca/f/LanguageSelection.aspx?s=442ca660-fcf1-47c0-95a9-59707d6fd709

Hourly Data Report for January 04, 2003

TORONTO CITY
ONTARIO

43°40'00.000" N
79°24'00.000" W
112.50 m
6158355
71508
XTO

Download Data

Hourly Data (January 2003)
Hourly Data Report for January 4, 2003
TIME
LST
Temp Definition
°C
Dew Point Definition
°C
Rel Hum Definition
%
Precip. Amount Definition
mm

Wind Dir Definition
10's deg

Wind Spd Definition
km/h
Visibility Definition
km
Stn Press Definition
kPa
Hmdx Definition


Wind Chill Definition


Weather Definition


00:00 -2.2 -3.0 94     0 LegendMM 99.74     LegendNANA
01:00
02:00 -2.7 -3.8 92     0 LegendMM 99.75     LegendNANA
03:00 -2.6 -3.8 91     0 LegendMM 99.80     LegendNANA
04:00 -2.7 -4.1 90     0 LegendMM 99.80     LegendNANA
05:00 -2.9 -4.1 91     0 LegendMM 99.84     LegendNANA
06:00 -2.9 -4.1 91     0 LegendMM 99.85     LegendNANA
07:00
08:00 -3.4 -4.3 93     0 LegendMM 99.99     LegendNANA
09:00 -3.2 -4.4 91     0 LegendMM 100.04     LegendNANA
10:00 -2.4 -4.2 87     0 LegendMM 100.07     LegendNANA
11:00 -2.0 -4.3 84     0 LegendMM 100.04     LegendNANA
12:00 -1.6 -4.4 81     0 LegendMM 100.00     LegendNANA
13:00 -1.3 -4.2 81     0 LegendMM 100.00     LegendNANA
14:00 -1.1 -3.9 81     0 LegendMM 100.01     LegendNANA
15:00 -1.0 -3.8 81     0 LegendMM 100.04     LegendNANA
16:00 -0.9 -3.3 84     0 LegendMM 100.09     LegendNANA
17:00 -0.9 -3.0 86     0 LegendMM 100.16     LegendNANA
18:00 -1.1 -2.9 88     0 LegendMM 100.19     LegendNANA
19:00 -0.8 -2.8 86     0 LegendMM 100.24     LegendNANA
20:00 -0.6 -3.2 83     0 LegendMM 100.25     LegendNANA
21:00 -1.0 -4.4 78     0 LegendMM 100.27     LegendNANA
22:00 -1.1 -4.5 78     0 LegendMM 100.26     LegendNANA
23:00 -1.2 -4.3 79     0 LegendMM 100.25     LegendNANA

Notes on Data Quality.

Legend

  • E = Estimated
  • M = Missing
  • NA = Not Available*
  • [empty] = Indicates an unobserved value
Date modified: